[[{"header":{"parameterUnit":"m.s-1","parameterCategory":1,"la1":30.2991,"la2":30.254,"lo1":-89.0895,"lo2":-89.0444,"dy":0.0017,"dx":0.0017,"nx":28,"ny":28,"refTime":"2024-06-01T09:00:00:Z","depth":0,"parameterNumber":2,"parameterNumberName":"U-component_of_WINDS"},"data":[0,0,0,0,0,0,0,0,0,0,0,0,0,0,0,0,0,0,0,0,0,0,0,0,0,0,0,0,0,0,0,0,0,0,0,0,0,0,0,0,0,0,0,0,0,0,0,0,0,0,0,0,0,0,0,0,0,0,-1.375,-1.3751,0,-1.3873,-1.3874,-1.3876,-1.3967,-1.3968,-1.3969,-1.397,-1.4095,-1.4097,-1.41,0,0,0,0,0,0,0,0,0,0,0,0,0,-1.3593,-1.3595,-1.375,-1.3751,-1.3753,-1.3873,-1.3875,-1.3876,-1.3967,-1.3968,-1.3969,-1.397,-1.4094,-1.4097,-1.41,0,0,0,0,0,0,0,0,0,0,0,0,0,-1.3683,-1.3596,-1.3749,-1.3813,-1.382,-1.3872,-1.3875,-1.3877,-1.3967,-1.3968,-1.3969,-1.397,-1.4093,-1.4097,-1.4101,-1.41,0,0,-1.4112,-1.4114,0,0,0,0,0,0,0,0,-1.3678,-1.3688,-1.3802,-1.3808,-1.3816,-1.3906,-1.3865,-1.3952,-1.3967,-1.3911,-1.397,-1.3971,-1.4031,-1.404,-1.406,-1.4106,-1.4112,-1.4113,-1.4115,-1.4117,-1.4118,0,0,0,0,0,0,0,-1.3671,-1.3684,-1.3798,-1.3803,-1.3812,-1.3835,-1.3849,-1.3882,-1.3963,-1.3916,-1.3923,-1.3936,-1.4035,-1.4056,-1.4064,-1.4113,-1.4113,-1.4116,-1.4118,-1.412,-1.4166,-1.4165,0,0,0,0,0,0,-1.3655,-1.3678,-1.3795,-1.3802,-1.3748,-1.3837,-1.3852,-1.3876,-1.3963,-1.3977,-1.3935,-1.394,-1.4049,-1.4059,-1.4069,-1.4074,-1.4117,-1.412,-1.4123,-1.4167,-1.4165,-1.4164,0,0,0,0,0,0,-1.3651,-1.3665,-1.379,-1.3742,-1.376,-1.3838,-1.3864,-1.3878,-1.3899,-1.3977,-1.3992,-1.3942,-1.4051,-1.4063,-1.4092,-1.408,-1.4122,-1.4126,-1.4168,-1.4166,-1.4165,-1.4085,0,0,0,0,0,0,-1.3647,-1.3663,-1.3663,-1.3741,-1.3762,-1.381,-1.3863,-1.3879,-1.3906,-1.3913,-1.3988,-1.4001,-1.4053,-1.4086,-1.4096,-1.4086,-1.4129,-1.4169,-1.4167,-1.4165,-1.4089,-1.4081,-1.4074,0,0,0,0,0,-1.3641,-1.3636,-1.3663,-1.3677,-1.3764,-1.381,-1.3821,-1.3881,-1.3904,-1.3906,-1.3956,-1.3999,-1.408,-1.4088,-1.41,-1.4091,-1.417,-1.4168,-1.4165,-1.4092,-1.4082,-1.4074,0,0,0,0,0,0,-1.3554,-1.3647,-1.3678,-1.3699,-1.3745,-1.3825,-1.3828,-1.3868,-1.3909,-1.3915,-1.3987,-1.4003,-1.4024,-1.4061,-1.4068,-1.4096,-1.4131,-1.413,-1.4071,-1.4062,-1.4054,-1.4045,-1.4132,0,0,0,0,0,-1.3537,-1.3566,-1.3646,-1.3656,-1.3678,-1.3749,-1.3771,-1.3813,-1.3865,-1.3885,-1.3937,-1.3985,-1.4022,-1.4044,-1.4082,-1.4095,-1.4113,-1.4095,-1.4087,-1.4081,-1.4079,-1.4089,-1.4083,-1.4156,-1.4156,-1.4156,0,0,-1.3503,-1.3557,-1.3571,-1.364,-1.3682,-1.371,-1.3765,-1.3793,-1.3815,-1.3889,-1.3919,-1.3959,-1.4018,-1.4038,-1.405,-1.407,-1.4063,-1.4078,-1.4072,-1.4074,-1.4086,-1.4079,-1.4073,-1.4154,-1.4155,-1.4155,0,0,-1.3455,-1.3499,-1.3512,-1.3553,-1.3615,-1.3662,-1.3665,-1.3739,-1.3768,-1.38,-1.3857,-1.3884,-1.3945,-1.3984,-1.4012,-1.398,-1.4021,-1.399,-1.395,-1.3959,-1.3953,-1.3948,-1.3936,-1.3931,-1.3989,-1.3989,-1.3989,0,-1.3404,-1.3449,-1.3514,-1.3539,-1.3567,-1.3637,-1.3651,-1.3687,-1.3758,-1.3776,-1.3797,-1.3876,-1.392,-1.3951,-1.3943,-1.3964,-1.3969,-1.3982,-1.3949,-1.3944,-1.3941,-1.393,-1.3926,-1.3985,-1.3985,-1.3986,-1.3986,0,-1.3384,-1.3414,-1.3418,-1.3485,-1.3514,-1.3533,-1.3601,-1.3623,-1.3663,-1.3707,-1.3739,-1.3795,-1.3845,-1.3856,-1.3895,-1.3893,-1.3903,-1.3935,-1.3971,-1.3929,-1.392,-1.3916,-1.3979,-1.398,-1.3981,-1.3982,0,0,-1.3284,-1.3387,-1.3387,-1.3419,-1.3493,-1.3517,-1.354,-1.359,-1.3607,-1.3654,-1.3674,-1.3725,-1.3756,-1.3787,-1.3831,-1.3839,-1.381,-1.3871,-1.3874,-1.3857,-1.381,-1.3785,-1.3779,-1.3838,-1.3837,-1.3837,-1.3805,0,-1.3247,-1.3291,-1.335,-1.3374,-1.3403,-1.347,-1.3489,-1.3537,-1.3579,-1.361,-1.3658,-1.3692,-1.373,-1.375,-1.3761,-1.3811,-1.3801,-1.3814,-1.3857,-1.3857,-1.3839,-1.3775,-1.3748,-1.3716,-1.3802,-1.3802,-1.3802,0,-1.3209,-1.3253,-1.328,-1.3352,-1.3366,-1.3382,-1.3433,-1.3462,-1.3517,-1.3548,-1.3583,-1.3631,-1.3658,-1.3691,-1.3729,-1.3737,-1.3758,-1.3785,-1.3786,-1.3791,-1.3826,-1.3778,-1.3707,-1.3701,-1.3797,-1.3797,-1.3798,0,-1.3133,-1.3199,-1.3223,-1.3248,-1.3333,-1.3343,-1.3378,-1.3435,-1.3461,-1.3505,-1.3523,-1.357,-1.3595,-1.363,-1.3689,-1.3708,-1.3721,-1.3759,-1.3747,-1.3745,-1.3745,-1.3744,-1.3676,-1.376,-1.376,-1.376,-1.376,0,-1.3085,-1.3099,-1.319,-1.3205,-1.3223,-1.3291,-1.3306,-1.3348,-1.3398,-1.3422,-1.3483,-1.3504,-1.3581,-1.3612,-1.3658,-1.3683,-1.3694,-1.3719,-1.3731,-1.3713,-1.371,-1.3727,-1.3731,-1.3759,-1.3759,-1.3759,-1.376,0,-1.3003,-1.3064,-1.3096,-1.3173,-1.3193,-1.3202,-1.3269,-1.3286,-1.3333,-1.3363,-1.3374,-1.3447,-1.3486,-1.3549,-1.3606,-1.3637,-1.3653,-1.3674,-1.3634,-1.3642,-1.3626,-1.3626,-1.3565,-1.3561,-1.3648,-1.3647,-1.3646,0,-1.2968,-1.298,-1.3059,-1.308,-1.3113,-1.3146,-1.3173,-1.3241,-1.3267,-1.3331,-1.334,-1.3384,-1.3423,-1.3482,-1.354,-1.3584,-1.3606,-1.3582,-1.3613,-1.3595,-1.3605,-1.3603,-1.3605,-1.3574,-1.3573,-1.3572,-1.3571,0,-1.2899,-1.2929,-1.2966,-1.3014,-1.3045,-1.3085,-1.3129,-1.3143,-1.322,-1.3246,-1.3287,-1.3317,-1.3376,-1.3418,-1.3471,-1.3508,-1.3552,-1.3561,-1.356,-1.3542,-1.3518,-1.353,-1.3614,-1.3562,-1.3563,-1.3563,-1.3564,-1.3564,-1.284,-1.2854,-1.2911,-1.2951,-1.2991,-1.303,-1.305,-1.3099,-1.3135,-1.3188,-1.3226,-1.3264,-1.332,-1.3395,-1.3429,-1.346,-1.348,-1.3479,-1.3479,-1.3477,-1.347,-1.3514,-1.347,-1.347,-1.3471,-1.3471,-1.3471,0,-1.2774,-1.2815,-1.285,-1.2909,-1.294,-1.298,-1.303,-1.3053,-1.3086,-1.3134,-1.3171,-1.3218,-1.326,-1.3321,-1.3368,-1.3381,-1.3402,-1.339,-1.339,-1.3398,-1.345,-1.3446,-1.3372,-1.3372,-1.3372,-1.3372,-1.3372,-1.3372,-1.2744,-1.2769,-1.2806,-1.2852,-1.2893,-1.2931,-1.2956,-1.2993,-1.3032,-1.3081,-1.3116,-1.3156,-1.321,-1.3261,-1.3301,-1.3318,-1.3332,-1.3314,-1.3337,-1.3385,-1.3394,-1.3403,-1.3399,-1.3316,-1.3316,-1.3282,-1.3281,-1.3281]},{"header":{"parameterUnit":"m.s-1","parameterCategory":1,"la1":30.2991,"la2":30.254,"lo1":-89.0895,"lo2":-89.0444,"dy":0.0017,"dx":0.0017,"nx":28,"ny":28,"refTime":"2024-06-01T09:00:00:Z","depth":0,"parameterNumber":3,"parameterNumberName":"V-component_of_WINDS"},"data":[0,0,0,0,0,0,0,0,0,0,0,0,0,0,0,0,0,0,0,0,0,0,0,0,0,0,0,0,0,0,0,0,0,0,0,0,0,0,0,0,0,0,0,0,0,0,0,0,0,0,0,0,0,0,0,0,0,0,5.6459,5.6458,0,5.6388,5.6388,5.6387,5.6239,5.6236,5.6233,5.6231,5.616,5.6161,5.6162,0,0,0,0,0,0,0,0,0,0,0,0,0,5.6467,5.6468,5.6459,5.6458,5.6457,5.6388,5.6388,5.6387,5.624,5.6236,5.6233,5.6229,5.616,5.6161,5.6162,0,0,0,0,0,0,0,0,0,0,0,0,0,5.6437,5.6468,5.6459,5.6376,5.6367,5.6389,5.6387,5.6386,5.6241,5.6236,5.6232,5.6227,5.616,5.6161,5.6162,5.626,0,0,5.6166,5.6167,0,0,0,0,0,0,0,0,5.6439,5.6437,5.6389,5.6381,5.6372,5.6318,5.6364,5.6344,5.6242,5.6289,5.623,5.6225,5.6216,5.6213,5.6209,5.6256,5.6253,5.6166,5.6167,5.6168,5.6168,0,0,0,0,0,0,0,5.6441,5.6439,5.6431,5.6388,5.6378,5.6342,5.6333,5.636,5.6279,5.6284,5.6273,5.6267,5.6211,5.6209,5.6207,5.6252,5.6166,5.6168,5.6168,5.6169,5.6372,5.6377,0,0,0,0,0,0,5.6455,5.6442,5.6433,5.6429,5.6395,5.6345,5.6335,5.634,5.6278,5.6264,5.6271,5.626,5.6208,5.6205,5.6204,5.6311,5.6168,5.6169,5.617,5.6368,5.6373,5.6378,0,0,0,0,0,0,5.6456,5.6456,5.6436,5.6432,5.6427,5.635,5.6357,5.6341,5.6338,5.6268,5.6252,5.6283,5.6205,5.6202,5.6246,5.6307,5.617,5.6171,5.6362,5.637,5.6376,5.6529,0,0,0,0,0,0,5.6457,5.6457,5.6493,5.6434,5.6428,5.648,5.636,5.6343,5.6341,5.6326,5.6275,5.6262,5.6201,5.6245,5.6247,5.6306,5.6172,5.6357,5.6366,5.6374,5.6518,5.654,5.6559,0,0,0,0,0,5.6458,5.654,5.6496,5.6496,5.6471,5.6484,5.648,5.6407,5.6346,5.6382,5.6336,5.6264,5.63,5.6251,5.6252,5.6312,5.6352,5.6363,5.6373,5.6509,5.6536,5.6559,0,0,0,0,0,0,5.661,5.6531,5.6481,5.6547,5.6523,5.6459,5.6501,5.6439,5.6432,5.6419,5.633,5.6319,5.6375,5.6348,5.6294,5.6402,5.6315,5.6326,5.6417,5.6442,5.6463,5.6467,5.6173,0,0,0,0,0,5.6651,5.6667,5.6597,5.6662,5.6653,5.658,5.6582,5.6528,5.65,5.649,5.6447,5.6423,5.6428,5.6434,5.6436,5.6514,5.65,5.6556,5.6577,5.6594,5.6604,5.6641,5.6665,5.6412,5.6412,5.6412,0,0,5.6736,5.6695,5.6711,5.6692,5.6667,5.6685,5.6572,5.6597,5.661,5.6493,5.6531,5.65,5.6467,5.6528,5.6553,5.6508,5.6671,5.6607,5.6621,5.6622,5.6654,5.6678,5.67,5.6419,5.6418,5.6417,0,0,5.69,5.6871,5.692,5.6898,5.6861,5.6811,5.6824,5.6769,5.6743,5.678,5.6692,5.6706,5.6718,5.6698,5.6689,5.6844,5.6777,5.6847,5.6954,5.6991,5.7011,5.7028,5.7081,5.7102,5.6858,5.6858,5.6858,0,5.701,5.7034,5.6954,5.6984,5.6978,5.6872,5.6921,5.6903,5.687,5.6868,5.6817,5.6828,5.6799,5.6852,5.689,5.6887,5.6897,5.6852,5.7015,5.7031,5.7046,5.7096,5.7116,5.6867,5.6866,5.6865,5.6864,0,5.717,5.7189,5.7233,5.7202,5.72,5.724,5.7166,5.7175,5.7121,5.7077,5.7115,5.7076,5.7066,5.7075,5.7024,5.7121,5.7094,5.7031,5.6941,5.708,5.7125,5.7144,5.6879,5.6876,5.6873,5.6871,0,0,5.7428,5.7351,5.7368,5.7352,5.7303,5.7316,5.735,5.734,5.7348,5.7329,5.7354,5.7366,5.7306,5.7297,5.7241,5.7275,5.7397,5.7206,5.7204,5.7242,5.75,5.7547,5.7571,5.7353,5.7356,5.7359,5.7502,0,5.7579,5.7633,5.7562,5.7631,5.7646,5.7545,5.7575,5.7549,5.7508,5.7515,5.747,5.7479,5.7401,5.7394,5.7422,5.7376,5.7448,5.7365,5.7375,5.7376,5.7385,5.7594,5.7645,5.7782,5.752,5.7523,5.7525,0,5.7763,5.775,5.7821,5.7766,5.777,5.7798,5.7782,5.779,5.7757,5.7725,5.7714,5.7647,5.7677,5.7591,5.7629,5.7575,5.7574,5.7553,5.7556,5.7553,5.7458,5.7596,5.7824,5.7844,5.7552,5.755,5.7548,0,5.7941,5.7942,5.7984,5.7973,5.7911,5.7933,5.7908,5.7871,5.7869,5.7855,5.7852,5.7843,5.7838,5.7832,5.7764,5.7708,5.781,5.7719,5.7784,5.7786,5.7809,5.7808,5.8039,5.7812,5.7812,5.7811,5.7811,0,5.8117,5.8164,5.8063,5.8089,5.8137,5.8055,5.8106,5.8071,5.8039,5.8055,5.7969,5.7986,5.7897,5.7905,5.7852,5.7891,5.789,5.7864,5.7849,5.7871,5.7874,5.7869,5.7857,5.7817,5.7816,5.7814,5.7814,0,5.8324,5.8258,5.8297,5.8234,5.8219,5.8258,5.8204,5.8225,5.8179,5.8201,5.8202,5.8129,5.8134,5.8066,5.8058,5.8022,5.8084,5.8053,5.8095,5.8085,5.8152,5.8147,5.8387,5.8414,5.8172,5.8174,5.8176,0,5.8439,5.8473,5.8413,5.8418,5.8397,5.8406,5.8402,5.8323,5.8323,5.8287,5.8312,5.831,5.8303,5.8315,5.8261,5.8254,5.8221,5.8306,5.822,5.824,5.822,5.8219,5.8221,5.8324,5.8327,5.8329,5.8331,0,5.8651,5.8616,5.8615,5.8602,5.8601,5.8587,5.8568,5.8577,5.8489,5.8494,5.8497,5.8492,5.8482,5.848,5.8462,5.8436,5.837,5.8359,5.8373,5.8395,5.8417,5.8404,5.8143,5.8354,5.8352,5.835,5.8349,5.8348,5.8814,5.8838,5.88,5.88,5.8777,5.8761,5.8777,5.8732,5.8733,5.8718,5.8671,5.8682,5.8647,5.8616,5.8596,5.8603,5.8561,5.8582,5.8587,5.8593,5.8605,5.8417,5.8599,5.8599,5.8598,5.8597,5.8597,0,5.9019,5.8989,5.8991,5.8966,5.8967,5.8903,5.8878,5.8883,5.8893,5.8866,5.886,5.8863,5.886,5.8807,5.8797,5.8813,5.8782,5.8813,5.881,5.8805,5.8644,5.8632,5.8838,5.8838,5.8838,5.8838,5.8838,5.8838,5.9126,5.9163,5.9124,5.9148,5.9117,5.9127,5.9118,5.9102,5.9079,5.9086,5.9083,5.9047,5.9009,5.8996,5.899,5.8974,5.8974,5.9015,5.8989,5.884,5.8817,5.8794,5.8782,5.9016,5.9017,5.9149,5.915,5.9151]}]]